Location: Bergen
(60.3910°N, 5.3250°E)
Time: 03:59:17
(UTC+02:00)

ISS - Pass Details

Date: 30 September 2021
Orbit: 417 x 423 km, 51.6° (Epoch: 22 October)

Event Time Altitude Azimuth Distance (km) Brightness Sun altitude
Rises 21:01:18 0° 260° (W) 2,367 1.2 -14.0°
Reaches altitude 10° 21:04:37 10° 225° (SW) 1,501 -0.6 -14.4°
Maximum altitude 21:05:45 11° 205° (SSW) 1,421 -1.0 -14.5°
Drops below altitude 10° 21:06:53 10° 185° (S) 1,500 -1.1 -14.6°
Enters shadow 21:07:33 - 175° (S) 1,615 -1.0 -14.7°
